When you browse on this site, cookies collect data to enhance your experience and personalize the content and advertising you see.
Visit our Privacy Policy to learn more. By continuing to use the site, you agree to this use of cookies and data.
  • Em Portugal
  • Lista de países
  • Para 7 dias
  • Temperatura da água
  • Mapa do tempo
  • Widgets de tempo
  • user-avatar
    Iniciar Sessão

    Previsão horária em Malbun

    Hoje, 7 Abril, Terça-feira

    Tempo Temperatura Precipitação Vento Pressão Humidade
    00:00 +1°C° 0 mm 2 m/s 637 mmHg 68%
    01:00 -1°C° 0 mm 2 m/s 637 mmHg 66%
    02:00 -1°C° 0 mm 2 m/s 637 mmHg 67%
    03:00 -1°C° 0 mm 2 m/s 637 mmHg 68%
    04:00 -1°C° 0 mm 2 m/s 637 mmHg 69%
    05:00 +1°C° 0 mm 2 m/s 637 mmHg 70%
    06:00 +2°C° 0 mm 1 m/s 637 mmHg 70%
    07:00 +3°C° 0 mm 1 m/s 638 mmHg 71%
    08:00 +5°C° 0 mm 1 m/s 638 mmHg 67%
    09:00 +8°C° 0 mm 1 m/s 639 mmHg 63%
    10:00 +10°C° 0 mm 1 m/s 640 mmHg 59%
    11:00 +11°C° 0 mm 1 m/s 640 mmHg 58%
    12:00 +11°C° 0 mm 1 m/s 640 mmHg 56%
    13:00 +12°C° 0 mm 1 m/s 640 mmHg 54%
    14:00 +12°C° 0 mm 1 m/s 640 mmHg 54%
    15:00 +12°C° 0 mm 1 m/s 639 mmHg 54%
    16:00 +12°C° 0 mm 1 m/s 639 mmHg 54%
    17:00 +10°C° 0 mm 1 m/s 638 mmHg 62%
    18:00 +7°C° 0 mm 1 m/s 637 mmHg 70%
    19:00 +5°C° 0 mm 1 m/s 637 mmHg 78%
    20:00 +4°C° 0 mm 2 m/s 637 mmHg 76%
    21:00 +3°C° 0 mm 2 m/s 637 mmHg 74%
    22:00 +2°C° 0 mm 2 m/s 637 mmHg 72%
    23:00 +2°C° 0 mm 2 m/s 637 mmHg 71%

    Amanhã, 8 Abril, Quarta-feira

    Tempo Temperatura Precipitação Vento Pressão Humidade
    00:00 +2°C° 0 mm 2 m/s 637 mmHg 70%
    01:00 +1°C° 0 mm 2 m/s 637 mmHg 70%
    02:00 +1°C° 0 mm 2 m/s 637 mmHg 69%
    03:00 +1°C° 0 mm 2 m/s 636 mmHg 68%
    04:00 +1°C° 0 mm 2 m/s 636 mmHg 68%
    05:00 +1°C° 0 mm 2 m/s 636 mmHg 66%
    06:00 +2°C° 0 mm 2 m/s 637 mmHg 64%
    07:00 +4°C° 0 mm 1 m/s 637 mmHg 62%
    08:00 +6°C° 0 mm 1 m/s 637 mmHg 57%
    09:00 +9°C° 0 mm 1 m/s 638 mmHg 51%
    10:00 +10°C° 0 mm 0 m/s 639 mmHg 45%
    11:00 +12°C° 0 mm 1 m/s 639 mmHg 44%
    12:00 +13°C° 0 mm 1 m/s 639 mmHg 44%
    13:00 +13°C° 0 mm 1 m/s 639 mmHg 43%
    14:00 +13°C° 0 mm 1 m/s 638 mmHg 45%
    15:00 +13°C° 0 mm 1 m/s 638 mmHg 47%
    16:00 +13°C° 0 mm 1 m/s 638 mmHg 49%
    17:00 +10°C° 0.1 mm 1 m/s 637 mmHg 61%
    18:00 +8°C° 0.1 mm 1 m/s 636 mmHg 73%
    19:00 +5°C° 0.1 mm 0 m/s 635 mmHg 85%
    20:00 +5°C° 0 mm 1 m/s 635 mmHg 87%
    21:00 +5°C° 0 mm 1 m/s 635 mmHg 88%
    22:00 +4°C° 0 mm 1 m/s 635 mmHg 89%
    23:00 +4°C° 0 mm 1 m/s 635 mmHg 89%

    Depois de amanhã, 9 Abril, Quinta-feira

    Tempo Temperatura Precipitação Vento Pressão Humidade
    00:00 +4°C° 0 mm 1 m/s 635 mmHg 89%
    01:00 +3°C° 0 mm 1 m/s 635 mmHg 90%
    02:00 +3°C° 0 mm 1 m/s 635 mmHg 90%
    03:00 +3°C° 0 mm 1 m/s 634 mmHg 90%
    04:00 +3°C° 0 mm 1 m/s 634 mmHg 90%
    05:00 +4°C° 0 mm 1 m/s 635 mmHg 89%
    06:00 +3°C° 0 mm 0 m/s 635 mmHg 88%
    07:00 +4°C° 0 mm 0 m/s 635 mmHg 86%
    08:00 +7°C° 0 mm 1 m/s 636 mmHg 79%
    09:00 +9°C° 0 mm 1 m/s 636 mmHg 72%
    10:00 +10°C° 0 mm 1 m/s 637 mmHg 64%
    11:00 +11°C° 0 mm 1 m/s 637 mmHg 60%
    12:00 +12°C° 0 mm 1 m/s 637 mmHg 56%
    13:00 +12°C° 0 mm 2 m/s 637 mmHg 52%
    14:00 +12°C° 0.1 mm 2 m/s 637 mmHg 55%
    15:00 +12°C° 0.1 mm 2 m/s 636 mmHg 57%
    16:00 +10°C° 0.1 mm 2 m/s 636 mmHg 60%
    17:00 +10°C° 0.1 mm 1 m/s 635 mmHg 68%
    18:00 +8°C° 0.1 mm 1 m/s 635 mmHg 77%
    19:00 +6°C° 0.1 mm 1 m/s 634 mmHg 85%
    20:00 +5°C° 0 mm 1 m/s 634 mmHg 86%
    21:00 +4°C° 0 mm 1 m/s 634 mmHg 87%
    22:00 +4°C° 0 mm 1 m/s 635 mmHg 88%
    23:00 +4°C° 0 mm 1 m/s 635 mmHg 88%

    10 Abril, Sexta-feira

    Tempo Temperatura Precipitação Vento Pressão Humidade
    00:00 +3°C° 0 mm 1 m/s 635 mmHg 88%
    01:00 +3°C° 0 mm 1 m/s 635 mmHg 88%
    02:00 +3°C° 0 mm 1 m/s 634 mmHg 88%
    03:00 +3°C° 0 mm 1 m/s 634 mmHg 88%
    04:00 +3°C° 0 mm 1 m/s 634 mmHg 88%
    05:00 +4°C° 0 mm 1 m/s 635 mmHg 84%
    06:00 +5°C° 0 mm 1 m/s 635 mmHg 81%
    07:00 +5°C° 0 mm 1 m/s 635 mmHg 78%
    08:00 +8°C° 0 mm 1 m/s 636 mmHg 69%
    09:00 +10°C° 0 mm 1 m/s 637 mmHg 60%
    10:00 +12°C° 0 mm 1 m/s 638 mmHg 51%
    11:00 +13°C° 0 mm 1 m/s 638 mmHg 48%
    12:00 +14°C° 0 mm 1 m/s 638 mmHg 45%
    13:00 +15°C° 0 mm 1 m/s 638 mmHg 42%
    14:00 +15°C° 0 mm 1 m/s 637 mmHg 44%
    15:00 +14°C° 0 mm 2 m/s 637 mmHg 45%
    16:00 +14°C° 0 mm 2 m/s 637 mmHg 47%
    17:00 +12°C° 0 mm 1 m/s 636 mmHg 58%
    18:00 +10°C° 0 mm 1 m/s 635 mmHg 68%
    19:00 +6°C° 0 mm 0 m/s 634 mmHg 79%
    20:00 +7°C° 0 mm 1 m/s 634 mmHg 80%
    21:00 +6°C° 0 mm 1 m/s 634 mmHg 81%
    22:00 +6°C° 0 mm 1 m/s 634 mmHg 82%
    23:00 +6°C° 0 mm 1 m/s 634 mmHg 82%

    11 Abril, Sábado

    Tempo Temperatura Precipitação Vento Pressão Humidade
    00:00 +6°C° 0 mm 1 m/s 634 mmHg 82%
    01:00 +5°C° 0 mm 1 m/s 634 mmHg 83%
    02:00 +5°C° 0 mm 1 m/s 634 mmHg 82%
    03:00 +6°C° 0 mm 1 m/s 634 mmHg 81%
    04:00 +6°C° 0 mm 1 m/s 634 mmHg 80%
    05:00 +6°C° 0 mm 1 m/s 634 mmHg 78%
    06:00 +7°C° 0 mm 1 m/s 635 mmHg 77%
    07:00 +8°C° 0 mm 1 m/s 635 mmHg 76%
    08:00 +9°C° 0 mm 1 m/s 635 mmHg 69%
    09:00 +11°C° 0 mm 1 m/s 636 mmHg 61%
    10:00 +13°C° 0 mm 1 m/s 636 mmHg 54%
    11:00 +14°C° 0.1 mm 1 m/s 636 mmHg 51%
    12:00 +14°C° 0.1 mm 1 m/s 636 mmHg 48%
    13:00 +15°C° 0.1 mm 2 m/s 636 mmHg 45%
    14:00 +15°C° 0.1 mm 2 m/s 636 mmHg 46%
    15:00 +14°C° 0.1 mm 2 m/s 636 mmHg 48%
    16:00 +14°C° 0.1 mm 2 m/s 635 mmHg 49%
    17:00 +12°C° 0.1 mm 1 m/s 635 mmHg 58%
    18:00 +10°C° 0.1 mm 1 m/s 634 mmHg 66%
    19:00 +9°C° 0.1 mm 1 m/s 633 mmHg 74%
    20:00 +8°C° 0.1 mm 1 m/s 633 mmHg 76%
    21:00 +7°C° 0.1 mm 1 m/s 634 mmHg 78%
    22:00 +7°C° 0.1 mm 1 m/s 634 mmHg 79%
    23:00 +7°C° 0.2 mm 1 m/s 633 mmHg 81%

    12 Abril, Domingo

    Tempo Temperatura Precipitação Vento Pressão Humidade
    00:00 +6°C° 0.2 mm 1 m/s 633 mmHg 83%
    01:00 +5°C° 0.2 mm 2 m/s 633 mmHg 85%
    02:00 +5°C° 0.1 mm 2 m/s 633 mmHg 86%
    03:00 +4°C° 0.1 mm 2 m/s 632 mmHg 86%
    04:00 +4°C° 0.1 mm 2 m/s 632 mmHg 87%
    05:00 +5°C° 0 mm 2 m/s 632 mmHg 84%
    06:00 +5°C° 0 mm 2 m/s 632 mmHg 82%
    07:00 +7°C° 0 mm 1 m/s 632 mmHg 80%
    08:00 +8°C° 0 mm 1 m/s 633 mmHg 73%
    09:00 +10°C° 0 mm 1 m/s 633 mmHg 67%
    10:00 +11°C° 0 mm 1 m/s 633 mmHg 60%
    11:00 +12°C° 0.3 mm 1 m/s 633 mmHg 59%
    12:00 +12°C° 0.3 mm 2 m/s 632 mmHg 57%
    13:00 +13°C° 0.3 mm 2 m/s 632 mmHg 56%
    14:00 +13°C° 0.3 mm 2 m/s 632 mmHg 55%
    15:00 +13°C° 0.3 mm 2 m/s 631 mmHg 55%
    16:00 +13°C° 0.3 mm 2 m/s 631 mmHg 54%
    17:00 +10°C° 0.1 mm 2 m/s 630 mmHg 59%
    18:00 +9°C° 0.1 mm 1 m/s 629 mmHg 64%
    19:00 +8°C° 0.1 mm 1 m/s 629 mmHg 70%
    20:00 +6°C° 0 mm 2 m/s 629 mmHg 71%
    21:00 +5°C° 0 mm 2 m/s 629 mmHg 72%
    22:00 +4°C° 0 mm 2 m/s 629 mmHg 73%
    23:00 +4°C° 0 mm 2 m/s 629 mmHg 73%
    Mostrar mais